Home   Weather   Gary   Past weeks
Flag for USA

Past Weather in Gary, Indiana, USA — Yesterday and Last 2 Weeks

Now
67 °F

Sunny.


Feels Like: 67 °F
Forecast: 73 / 66 °F
Wind: 10 mph from North

Location: Lansing Municipal Airport

Current Time: Jul 22, 2019 at 11:14:50 am

Latest Report: Jul 22, 2019 at 10:35 am


Visibility: 10 mi

Pressure: 30.07 "Hg

Humidity: 72%

Dew Point: 58 °F

Location of GaryLocation

Past Weather in Gary — Graph

°F

Gary Temperature Yesterday

Maximum temperature yesterday: 82 °F (at 10:55 am)
Minimum temperature yesterday: 69 °F (at 3:55 pm)
Average temperature yesterday: 73 °F

High & Low Weather Summary for the Past Weeks

 TemperatureHumidityPressure
High94 °F (Jul 20, 3:35 pm)100% (Jul 12, 4:35 am)30.13 "Hg (Jul 12, 4:35 am)
Low58 °F (Jul 12, 5:55 am)38% (Jul 9, 3:35 pm)29.77 "Hg (Jul 18, 6:15 pm)
Average77 °F78%29.96 "Hg
* Reported Jul 7 10:15 am — Jul 22 10:15 am, Gary. Weather by CustomWeather, © 2019

Note: Actual official high and low records may vary slightly from our data, if they occured in-between our weather recording intervals... More about our weather records

Advertising

Gary Weather History for the Previous 24 Hours

Scroll right to see more
 ConditionsComfort  
Time TempWeatherWind HumidityBarometerVisibility
10:15 am
Mon, Jul 22
68 °FSunny.9 mph73%30.06 "Hg10 mi
9:55 am70 °FSunny.9 mph74%30.06 "Hg10 mi
9:35 am69 °FScattered clouds.10 mph81%30.05 "Hg10 mi
9:15 am69 °FSunny.13 mph80%30.05 "Hg10 mi
8:35 am69 °FSunny.15 mph71%30.04 "Hg10 mi
8:15 am69 °FScattered clouds.12 mph80%30.04 "Hg10 mi
7:55 am69 °FScattered clouds.8 mph85%30.03 "Hg10 mi
7:35 am69 °FScattered clouds.14 mph86%30.02 "Hg10 mi
6:55 am68 °FOvercast.9 mph91%30.02 "Hg10 mi
6:35 am68 °FPartly sunny.8 mph93%30.01 "Hg10 mi
6:15 am68 °FPartly sunny.9 mph93%30.00 "Hg10 mi
5:55 am68 °FScattered clouds.8 mph91%30.00 "Hg10 mi
5:35 am68 °FSunny.8 mph93%29.99 "Hg10 mi
4:55 am68 °FSunny.7 mph94%29.97 "Hg10 mi
4:35 am68 °FSunny.No wind94%29.97 "Hg10 mi
4:15 am68 °FClear.8 mph93%29.96 "Hg10 mi
3:55 am68 °FClear.8 mph93%29.96 "Hg10 mi
3:35 am68 °FClear.8 mph91%29.97 "Hg10 mi
3:15 am68 °FClear.7 mph90%29.97 "Hg10 mi
2:55 am69 °FPassing clouds.9 mph90%29.97 "Hg10 mi
2:35 am69 °FPassing clouds.10 mph86%29.98 "Hg10 mi
2:15 am70 °FClear.No wind82%29.97 "Hg10 mi
1:55 am70 °FClear.No wind82%29.97 "Hg10 mi
1:35 am69 °FClear.No wind87%29.96 "Hg10 mi
1:15 am69 °FClear.No wind89%29.96 "Hg10 mi
12:55 am68 °FClear.No wind92%29.96 "Hg10 mi
12:35 am68 °FClear.No wind93%29.96 "Hg10 mi
12:15 am68 °FPassing clouds.No wind93%29.97 "Hg10 mi
11:55 pm
Sun, Jul 21
69 °FClear.No wind90%29.97 "Hg10 mi
11:35 pm69 °FClear.No wind88%29.98 "Hg10 mi
11:15 pm69 °FClear.No wind87%29.98 "Hg10 mi
10:55 pm70 °FClear.No wind84%29.97 "Hg10 mi
10:35 pm70 °FClear.No wind84%29.96 "Hg10 mi
10:15 pm70 °FClear.No wind83%29.97 "Hg10 mi
9:55 pm70 °FPassing clouds.No wind82%29.96 "Hg10 mi
9:35 pm71 °FClear.7 mph79%29.96 "Hg10 mi
9:15 pm70 °FPassing clouds.7 mph80%29.96 "Hg10 mi
8:55 pm70 °FPassing clouds.9 mph82%29.96 "Hg10 mi
8:15 pm71 °FPassing clouds.No wind86%29.97 "Hg10 mi
7:55 pm71 °FPartly cloudy.6 mph87%29.98 "Hg10 mi
7:15 pm71 °FCloudy.No wind88%29.96 "Hg10 mi
6:55 pm71 °FBroken clouds.No wind87%29.96 "Hg10 mi
6:35 pm72 °FSunny.8 mph86%29.94 "Hg10 mi
6:15 pm73 °FScattered clouds.10 mph84%29.94 "Hg10 mi
5:55 pm73 °FMore clouds than sun.8 mph88%29.94 "Hg10 mi
5:35 pm73 °FBroken clouds.10 mph90%29.94 "Hg10 mi
5:15 pm72 °FPartly sunny.9 mph95%29.94 "Hg10 mi
4:55 pm71 °FLow clouds.12 mph100%29.94 "Hg10 mi
4:35 pm70 °FLow clouds.10 mph100%29.94 "Hg10 mi
4:15 pm69 °FLight rain. Low clouds.9 mph100%29.94 "Hg10 mi
3:55 pm69 °FRain. Mostly cloudy.9 mph100%29.94 "Hg10 mi
3:35 pm69 °FThundershowers. Mostly cloudy.10 mph100%29.94 "Hg7 mi
3:15 pm70 °FThunderstorms. Cloudy.7 mph100%29.94 "Hg5 mi
2:55 pm70 °FStrong thunderstorms. Cloudy.No wind100%29.96 "Hg2 mi
2:35 pm70 °FStrong thunderstorms. Low clouds.No wind100%29.96 "Hg2 mi
2:15 pm71 °FThundershowers. Mostly cloudy.6 mph98%29.93 "Hg7 mi
1:55 pm71 °FThunderstorms. Cloudy.7 mph95%29.92 "Hg10 mi
1:35 pm73 °FThundershowers. Cloudy.15 mph92%29.93 "Hg10 mi
1:15 pm73 °FOvercast.10 mph93%29.93 "Hg10 mi
12:55 pm73 °FThundershowers. More clouds than sun.10 mph93%29.94 "Hg10 mi
12:35 pm73 °FThundershowers. More clouds than sun.9 mph93%29.94 "Hg10 mi
12:15 pm75 °FOvercast.8 mph90%29.94 "Hg10 mi
11:55 am76 °FOvercast.5 mph89%29.95 "Hg10 mi
11:35 am78 °FThundershowers. Overcast.9 mph86%29.94 "Hg10 mi
11:15 am79 °FOvercast.10 mph86%29.94 "Hg10 mi
Weather by CustomWeather, © 2019

See weather overview